Location: Feering
(51.8500°N, 0.7167°E)
Time: 22:13:44
(UTC+00:00)

Daily predictions for brighter satellites

Satellite Brightness Start Highest point End
(mag) Time Altitude Azimuth Time Altitude Azimuth Time Altitude Azimuth
Cosmos 2098 Rocket 3.6 16:19:51 10° SSE 16:24:07 47° E 16:29:04 10° NNE
Cosmos 2208 Rocket 4.4 16:20:00 10° NNW 16:25:10 72° WSW 16:30:20 10° SSE
Meteor 1-27 4.4 16:19:38 10° SSW 16:25:26 84° WNW 16:31:12 10° NNE
Cosmos 1782 2.7 16:23:29 10° S 16:27:00 54° E 16:30:30 10° NNE
Cosmos 2227 Rocket 2.3 16:23:02 10° NNW 16:28:37 57° NE 16:34:10 10° SE
Meteor 1-28 Rocket 3.8 16:26:33 10° NNE 16:29:32 29° E 16:32:29 10° SSE
Cosmos 2369 Rocket 3.9 16:27:51 10° W 16:32:25 24° NW 16:37:03 10° NNE
CBERS-1 4.0 16:28:18 10° SSE 16:33:23 69° ENE 16:38:29 10° NNW
CENTAUR R/B 3.2 16:34:51 10° WSW 16:40:45 51° NNW 16:48:13 10° NE
Cosmos 1697 Rocket 3.3 16:36:49 10° S 16:41:59 39° ESE 16:47:11 10° NE
Cosmos 1626 Rocket 4.0 16:38:06 10° NNW 16:42:23 65° W 16:46:38 10° S
Cosmos 2360 4.3 16:37:46 10° SSW 16:43:28 77° ESE 16:49:14 10° NNE
Cosmos 1538 Rocket 4.5 16:39:40 10° NNW 16:44:39 39° NE 16:49:37 10° SE
CZ-2D R/B 3.7 16:42:32 10° SE 16:45:11 25° ENE 16:47:52 10° N
NOSS 3 (A) 4.4 16:43:42 10° NNW 16:45:49 39° NE 16:48:29 10° ESE
Cosmos 2278 Rocket 4.3 16:45:28 10° NNW 16:47:01 11° N 16:48:33 10° N
Cosmos 2266 Rocket 3.9 16:42:01 10° N 16:48:10 67° ENE 16:54:11 10° SSE
Cosmos 1656 3.9 16:45:38 10° SW 16:51:16 76° WNW 16:57:01 10° NNE
Cosmos 2228 4.0 16:48:15 10° SSW 16:52:22 48° WNW 16:56:30 10° N
Cosmos 1606 Rocket 4.1 16:49:16 10° SSE 16:53:20 37° E 16:57:26 10° NNE
Cosmos 1503 Rocket 4.0 16:50:19 10° SSW 16:55:29 66° ESE 17:00:39 10° NNE
Lacrosse 5 rocket 1.9 16:52:41 10° WNW 16:56:12 37° N 16:58:51 15° ENE
CZ-4C R/B 3.5 16:51:38 10° NW 16:58:26 65° SW 17:06:53 10° SSE
UNK 4.1 16:54:03 10° NNE 16:58:28 45° E 17:02:49 10° S
Cosmos 1484 Rocket 3.2 16:56:59 10° S 17:00:26 58° WSW 17:03:53 10° NNW
Cosmos 1743 3.2 16:57:32 10° NNW 17:00:43 52° W 17:03:51 10° S
Thor Agena Rocket 3.5 16:56:29 10° SSE 17:01:41 85° ENE 17:06:51 10° NNW
Cosmos 1544 Rocket 4.0 16:58:19 10° SSW 17:02:42 66° WNW 17:07:09 10° N
IRS-P3 4.3 16:59:22 10° SE 17:04:25 47° ENE 17:09:30 10° N
NOSS 2-3 (D) 4.2 17:01:42 10° S 17:04:55 29° ESE 17:07:03 17° ENE
NOSS 2-3 (E) 4.1 17:02:17 10° S 17:05:33 31° ESE 17:07:43 18° ENE
Cosmos 1354 Rocket 4.1 17:01:22 10° S 17:06:31 59° ESE 17:11:39 10° NNE
IGS 5A 3.8 17:03:59 10° S 17:07:54 65° WSW 17:11:53 10° NNW
NOSS 2-2 (D) 3.7 17:05:01 10° WSW 17:07:58 37° NW 17:10:11 15° NNE
Cosmos 1777 Rocket 4.0 17:03:27 10° SSW 17:08:43 87° WNW 17:13:59 10° NNE
Cosmos 2151 3.4 17:04:39 10° NNW 17:08:47 65° W 17:12:55 10° S
Cosmos-2242 4.3 17:07:13 10° SE 17:10:19 20° E 17:11:24 18° ENE
USA 238 DEB 4.2 17:04:57 10° S 17:10:24 35° ESE 17:14:48 16° ENE
USA 238 4.2 17:05:05 10° S 17:10:32 34° ESE 17:14:54 17° ENE
MOS 1 Rocket 3.6 17:06:26 10° SE 17:11:19 54° ENE 17:16:28 10° N
Gbstr 26 Del rocket 3.4 17:10:12 10° SW 17:14:08 44° SSE 17:16:29 19° E
Cosmos 1726 Rocket 3.9 17:11:25 10° SSE 17:15:50 47° E 17:20:13 10° NNE
IRIDIUM 104 4.4 17:11:29 10° N 17:16:45 84° W 17:21:58 10° S
Cosmos 2082 4.0 17:11:35 10° NNW 17:17:06 47° NE 17:22:37 10° SE
ERS-1 4.4 17:12:28 10° SSE 17:17:24 64° ENE 17:22:20 10° N
USA 215 3.5 17:12:07 16° ENE 17:17:25 59° N 17:23:50 10° W
AQUARIUS 4.1 17:14:32 10° SSE 17:18:52 60° ENE 17:23:14 10° N
Cosmos 1805 3.8 17:16:55 10° NNE 17:19:48 25° ENE 17:22:40 10° SE
SMAP 3.2 17:15:33 10° SSE 17:20:12 81° WSW 17:24:54 10° NNW
Cosmos 2297 Rocket 4.1 17:15:41 10° NW 17:20:44 34° WSW 17:25:46 10° S
GEOS 3 Rocket 4.0 17:19:10 18° NE 17:23:03 51° SE 17:28:16 10° SSW
Landsat 7 3.7 17:19:40 10° SSE 17:24:19 88° ENE 17:29:01 10° NNW
Cosmos 923 Rocket 4.4 17:21:18 10° NNW 17:26:10 39° NE 17:31:01 10° ESE
YAOGAN 1 3.2 17:23:24 10° SE 17:27:09 31° ENE 17:30:56 10° N
Okean 1-7 Rocket 4.2 17:25:24 10° NNW 17:29:43 58° W 17:33:59 10° S
Cosmos 990 Rocket 3.9 17:28:45 10° SSW 17:33:53 81° ESE 17:38:14 15° NNE
Cosmos 1461 3.3 17:30:10 10° WSW 17:34:00 52° NW 17:36:23 21° NNE
NOSS 2-2 (E) 4.2 17:31:20 10° W 17:34:06 29° NNW 17:35:28 20° NNE
SL-16 R/B 3.0 17:28:25 10° NNE 17:34:33 61° WNW 17:40:38 10° SW
CZ-2D R/B 3.8 17:31:17 10° SE 17:35:11 41° ENE 17:39:04 10° N
SKYMED 2 4.2 17:35:14 27° ENE 17:36:41 34° E 17:40:38 10° SSE
COSMOS 2455 4.2 17:34:33 10° SSE 17:38:35 19° ESE 17:38:36 19° ESE
Okean 1 4.4 17:36:24 10° SSE 17:38:20 22° ESE 17:38:20 22° ESE
Cosmos 1844 Rocket 3.3 17:38:57 10° NNW 17:44:06 34° NE 17:45:49 28° ENE
Cosmos 2219 3.1 17:38:35 10° NNW 17:44:22 79° ENE 17:50:07 10° SE
SJ-6F 4.3 17:41:33 10° SSE 17:45:33 88° WSW 17:49:36 10° NNW
Cosmos 1980 Rocket 2.3 17:40:45 10° S 17:46:15 56° ESE 17:49:21 26° NE
Cosmos 1953 Rocket 3.6 17:42:14 10° NNW 17:46:43 86° WSW 17:51:10 10° S
Aureole 1 Rocket 3.6 17:43:40 10° S 17:48:15 56° ESE 17:51:47 23° NE
Meteor 1-26 Rocket 4.3 17:44:31 10° SSE 17:49:38 45° E 17:52:49 22° NNE
PSLV R/B 3.7 17:49:58 32° ESE 17:51:17 43° ENE 17:55:09 10° N
Cosmos 2263 Rocket 2.5 17:46:52 10° NW 17:52:31 68° WSW 17:58:09 10° SSE
ARIANE 5 R/B 3.2 17:48:23 10° S 17:53:22 57° WSW 17:58:28 10° NNW
SL-19 R/B 4.3 17:48:57 10° SE 17:54:16 55° ENE 17:59:56 10° N
NOSS 3-2 (A) 4.3 17:51:38 10° W 17:56:47 39° NNW 18:00:32 21° NE
BREEZE-M DEB (TANK) 4.2 17:54:43 10° SSW 17:57:12 18° SSE 17:57:13 18° SSE
Cosmos 1680 Rocket 3.6 17:52:50 10° NNW 17:57:56 49° ENE 18:00:24 28° ESE
COSMO-SKYMED 1 3.4 17:59:08 30° SE 17:59:08 30° SE 18:01:49 10° SSE
BREEZE-M DEB (TANK) 4.1 17:55:37 10° W 17:59:04 62° S 18:06:53 17° ESE
NOSS 3-2 (C) 3.6 17:54:26 10° WSW 17:59:40 59° NW 18:03:20 25° NE
Cosmos 1076 Rocket 4.1 17:57:05 10° NNW 18:01:19 57° W 18:05:32 10° S
Meteor 2-10 4.1 17:56:07 10° NNW 18:01:32 86° W 18:07:06 10° S
NOAA 15 4.5 17:56:20 10° SSE 18:01:35 72° ENE 18:06:52 10° NNW
Lacrosse 4 Rocket 3.9 18:02:02 10° NNW 18:02:38 10° NNW 18:03:14 10° N
NOAA 6 4.1 17:58:39 10° SE 18:03:35 52° ENE 18:08:31 10° N
Cosmos 2369 4.0 17:58:33 10° S 18:03:58 45° ESE 18:05:20 38° ENE
Cosmos 1943 Rocket 4.2 18:02:12 10° N 18:04:08 12° NNE 18:04:10 12° NNE
Resurs 01 Rocket 3.7 18:11:53 14° N 18:11:53 14° N 18:12:33 10° N
Cosmos 1655 Rocket 4.5 18:04:02 10° NNW 18:10:11 62° W 18:16:17 10° S
USA 81 4.1 18:05:25 10° N 18:10:43 82° W 18:15:59 10° S
Cosmos 44 Rocket 3.6 18:06:10 10° NW 18:11:10 52° NE 18:11:53 48° ENE
Cosmos 2227 Rocket 4.1 18:07:28 10° NW 18:12:22 31° WSW 18:17:14 10° SSW
SPOT 1/Viking Rocket 3.8 18:12:14 10° S 18:17:25 71° WSW 18:22:39 10° NNW
Cosmos 2369 Rocket 4.5 18:16:41 10° NNW 18:18:41 12° N 18:20:41 10° N
Cosmos 2058 Rocket 3.1 18:20:07 10° SSW 18:24:35 78° WNW 18:26:26 35° N
Cosmos 1697 Rocket 3.6 18:20:31 10° WSW 18:25:53 46° NW 18:29:16 22° NNE
OceanSat 1 rocket 4.4 18:22:16 10° SSE 18:27:00 84° ENE 18:31:44 10° NNW
USA 281 4.3 18:28:12 26° NNE 18:28:12 26° NNE 18:32:43 10° NNW
CENTAUR R/B 3.8 18:26:52 10° WNW 18:33:03 35° N 18:35:36 28° NNE
Meteor 2-11 Rocket 4.3 18:27:24 10° N 18:33:38 84° E 18:39:47 10° SSE
Lacrosse 5 rocket 2.5 18:30:12 10° WNW 18:32:26 30° NW 18:32:26 30° NW
Cosmos 2278 Rocket 4.2 18:30:49 10° N 18:32:43 14° N 18:32:43 14° N
Cosmos 2333 Rocket 4.4 18:29:19 10° SSE 18:29:34 11° SSE 18:29:34 11° SSE
NOSS 2-3 (C) 3.8 18:32:01 10° WSW 18:34:53 50° W 18:34:53 50° W
Meteor 1-14 Rocket 4.1 18:32:03 10° N 18:37:50 71° ENE 18:39:09 52° SE
Resurs 1-3 4.2 18:40:06 10° S 18:44:18 53° W 18:48:32 10° NNW
Cosmos-2242 3.8 18:42:53 10° SSW 18:47:01 50° WNW 18:47:46 44° NW
Cosmos 1844 3.6 18:49:34 10° NNW 18:54:37 71° N 18:54:37 71° N
Cosmos 1898 Rocket 3.8 18:50:57 10° SW 18:56:03 62° WNW 18:56:45 56° NNW
Cosmos 2112 Rocket 4.1 18:54:27 10° NNW 18:59:40 71° WSW 18:59:47 71° SW
USA 215 3.2 18:59:28 62° NE 19:00:04 65° NNE 19:06:33 10° WNW
Gbstr 26 Del rocket 4.4 18:56:20 10° W 18:58:31 31° W 18:58:31 31° W
USA 238 DEB 3.7 18:54:39 10° WSW 19:00:52 69° NW 19:02:15 55° NNE
USA 238 3.7 18:54:45 10° WSW 19:00:59 69° NW 19:02:21 55° NNE
GEOS 3 Rocket 4.3 19:00:12 46° N 19:01:01 50° NW 19:06:11 10° WSW
Cosmos 1553 Rocket 4.2 18:55:22 10° SSW 19:01:31 68° WNW 19:07:31 11° N
YAOGAN 1 4.1 18:59:04 10° SSW 19:02:58 34° W 19:06:52 10° NNW
BREEZE-M DEB (TANK) 4.3 19:01:54 10° SW 19:06:16 34° S 19:06:16 34° S
Cosmos 1709 Rocket 4.3 19:04:41 10° N 19:09:09 51° N 19:09:09 51° N
Cosmos 1937 Rocket 3.9 19:06:22 10° SW 19:10:58 58° W 19:10:58 58° W
Meteor 2-6 Rocket 4.3 19:06:11 10° SSW 19:11:37 75° WSW 19:11:37 75° WSW
Cosmos 2227 4.4 19:06:51 10° NW 19:12:29 66° WSW 19:12:30 66° WSW
SL-16 R/B 3.8 19:09:14 10° SSW 19:11:20 23° S 19:11:20 23° S
Cosmos 1745 Rocket 4.1 19:09:30 10° NNW 19:15:40 70° W 19:21:44 10° S
COSMOS 2455 3.5 19:17:37 10° SSW 19:21:47 47° SSW 19:21:47 47° SSW
Cosmos 1844 Rocket 3.3 19:22:43 10° NW 19:27:30 53° W 19:27:30 53° W
Cosmos 1980 Rocket 3.4 19:25:22 10° WSW 19:30:31 35° NW 19:31:07 34° NNW
CENTAUR R/B 4.2 20:18:20 10° NW 20:22:42 34° NNW 20:22:42 34° NNW
